Helicity
8 15 14 16 23 22 27 30 36 41 43 47 55 58 67 67 66 61 60 60 61 54 54 50 65 76 41 55 33 36 121 64 64 23 -93 -5 14 43 165 153 52 -39 -24 -58 -3 82 59
2 8 14 19 15 25 32 30 38 45 49 53 58 60 69 74 74 72 67 69 68 52 37 41 55 70 46 65 52 22 61 75 46 -1 -106 -46 8 21 63 141 33 10 -39 7 -17 69 80
-12 -3 10 16 20 23 25 26 29 39 49 58 58 67 71 81 87 87 93 81 71 51 25 36 46 30 58 24 53 102 51 78 26 -66 -111 -22 28 75 67 98 11 113 30 30 -48 19 67
-12 -10 -5 6 18 19 21 26 27 38 51 54 66 73 76 86 101 105 112 105 81 36 25 34 41 18 35 43 14 15 8 81 74 75 -21 -22 24 61 67 70 56 59 7 -2 -13 47 81
-10 -12 -11 -7 -0 8 13 19 23 30 49 56 68 72 84 86 102 114 137 154 69 27 21 26 31 26 49 28 14 14 29 73 40 59 -22 34 30 39 73 77 55 8 11 -26 -2 12 97
-2 -2 -6 -5 -1 8 12 19 16 30 45 55 65 75 88 87 101 115 177 104 44 56 39 19 23 46 46 95 44 7 21 55 84 62 60 59 58 39 65 48 66 34 52 34 30 28 91
-7 -4 -3 -6 2 1 14 18 18 32 48 55 58 72 84 89 98 88 105 78 74 62 52 13 13 35 62 99 73 39 45 56 105 119 183 110 59 -100 -68 -25 3 33 23 90 51 67 11
-11 -7 -0 4 3 -0 4 20 24 36 45 55 60 71 77 88 89 58 66 74 62 41 51 17 30 -0 -5 9 73 87 43 61 86 94 145 135 -46 -143 -80 -20 37 30 40 49 -6 -37 10
-7 -0 4 12 8 5 8 14 27 44 40 48 62 74 78 79 80 46 72 103 78 84 35 51 39 23 21 37 36 60 93 92 64 88 117 9 -71 -96 -102 -21 16 85 84 33 33 27 53
-9 2 5 7 10 3 3 14 28 51 54 56 60 63 66 76 63 83 121 111 93 30 69 62 46 38 76 45 55 62 72 108 120 54 71 -111 -88 9 76 5 12 90 13 -20 -4 41 19
-5 3 6 4 6 3 13 14 32 56 57 63 72 56 44 45 84 101 119 181 89 33 103 24 46 94 110 65 55 62 74 98 76 95 73 -37 -40 -33 -23 -2 3 98 81 -1 7 67 78
-5 5 5 6 13 11 19 39 45 62 83 79 80 51 29 30 51 114 173 171 54 102 115 36 27 45 135 59 57 85 67 81 43 43 20 -13 30 -10 -57 22 45 59 34 39 72 75 78
-6 -1 4 7 16 15 24 40 64 82 94 102 81 44 13 33 101 124 147 99 117 88 59 29 21 8 87 82 52 95 86 59 85 84 -17 117 60 -8 -59 13 -19 58 85 58 65 117 37
-6 -1 1 8 16 20 29 60 75 102 125 129 126 39 22 52 94 178 115 102 87 51 64 66 19 67 68 54 47 66 111 84 72 91 35 135 91 22 18 34 24 43 52 48 51 71 31
-3 -4 -3 12 14 26 37 65 91 120 147 156 53 33 43 67 71 158 108 73 65 100 150 150 73 86 47 -5 71 103 52 20 34 85 73 79 44 88 26 24 19 2 54 56 114 82 62
8 -2 9 17 16 33 43 75 105 138 181 145 32 45 54 56 62 118 103 22 51 86 100 92 109 40 -13 17 17 119 90 40 4 48 120 22 -1 38 18 9 22 38 45 80 111 70 56
6 15 20 18 21 45 50 80 120 140 207 92 31 60 64 29 55 110 45 -26 -21 -3 53 113 181 80 -5 12 61 53 61 59 36 14 78 87 45 89 8 32 28 51 86 126 113 99 38
13 18 18 19 28 46 58 82 116 138 193 22 63 78 5 33 92 76 26 -13 8 -100 -72 -10 72 61 112 32 52 64 43 42 54 135 72 52 45 25 81 81 48 49 62 135 117 141 143
19 20 24 28 34 45 59 88 125 143 126 66 44 41 -5 47 58 85 75 56 26 23 40 20 110 117 74 33 58 -8 13 -15 10 117 84 121 69 40 53 31 56 35 45 162 243 174 112
23 26 24 31 37 42 59 91 121 180 177 14 31 56 62 50 41 72 111 116 53 114 112 46 131 84 79 82 73 59 67 34 77 52 135 288 128 75 53 16 50 44 46 73 148 110 90
26 27 33 35 40 42 56 82 113 176 128 68 47 22 29 73 114 144 127 125 172 182 88 64 77 124 76 37 42 66 23 53 131 148 84 197 109 140 42 87 110 54 17 41 60 86 34
30 32 34 36 41 46 54 70 105 153 108 62 52 47 48 41 56 73 37 83 148 172 108 110 86 86 91 78 -2 14 21 112 131 180 105 174 117 198 52 35 66 77 66 45 43 49 91
30 32 33 36 43 47 57 63 73 100 95 61 76 70 49 30 39 54 56 61 106 71 58 61 61 155 148 132 55 53 44 68 76 158 146 138 166 167 81 116 118 127 79 17 51 85 97
28 31 33 40 47 49 52 57 53 50 51 50 46 50 51 34 31 30 48 43 89 80 75 35 24 62 24 38 77 88 105 54 115 104 105 114 176 184 103 151 120 112 96 42 83 134 146
21 23 30 38 44 48 47 50 51 42 44 51 32 39 16 40 35 31 19 41 32 49 52 39 33 33 24 83 104 126 147 91 41 62 143 91 102 146 133 110 155 170 137 107 82 90 110
17 23 34 46 53 49 45 44 49 49 40 31 39 22 41 79 64 93 73 29 26 42 80 82 68 60 109 127 122 97 80 170 92 99 109 184 166 164 165 126 125 98 127 155 131 118 71
23 27 31 39 45 46 41 40 47 49 44 28 17 25 40 55 79 70 64 49 35 42 68 94 103 53 144 135 121 112 86 76 78 96 145 155 207 214 213 217 211 151 119 135 146 73 87
22 32 39 41 39 37 33 31 39 52 41 32 19 28 41 44 62 52 48 61 54 13 21 53 85 106 103 94 78 54 70 63 94 125 128 126 152 197 266 270 276 171 189 136 89 93 89
41 44 42 39 38 30 27 25 31 39 25 24 27 56 35 44 29 37 30 56 21 39 20 30 33 64 28 44 36 63 62 53 62 87 120 144 104 101 155 209 163 154 156 102 141 133 111
Wind_Speed
65 64 62 61 61 60 59 58 56 56 54 53 52 51 51 50 50 49 48 48 49 48 46 45 44 43 36 37 47 34 32 22 4 3 11 20 25 26 33 34 36 16 15 21 26 29 25
66 65 64 64 63 62 62 60 59 57 56 55 54 53 53 52 52 51 50 51 50 49 45 43 42 41 34 43 31 32 29 19 11 3 10 12 18 25 32 34 29 40 21 20 19 20 20
67 67 66 65 65 64 63 63 61 60 58 57 56 55 54 54 54 53 54 53 51 47 43 41 39 36 40 44 22 35 38 28 17 2 11 18 23 28 38 34 35 45 30 25 28 16 21
69 69 67 66 64 65 64 65 63 61 60 58 57 56 56 55 55 55 55 55 52 45 41 38 36 33 47 34 36 50 38 39 40 40 18 22 19 30 27 36 38 35 27 32 25 20 13
70 70 69 68 66 66 66 66 64 62 61 59 58 57 56 56 55 55 55 53 45 39 35 34 32 34 46 41 36 39 25 28 16 19 18 27 21 25 29 33 32 27 28 33 40 30 11
73 71 70 69 68 67 66 66 65 63 62 60 59 58 57 56 54 52 52 44 33 35 33 34 40 41 43 31 30 21 20 23 22 9 17 15 20 22 27 25 20 29 35 40 43 25 20
72 72 70 70 70 68 68 66 66 65 62 60 59 58 57 55 53 49 41 35 37 40 42 40 35 43 41 38 33 31 21 20 21 19 10 17 14 8 18 24 30 38 40 46 38 23 27
69 70 71 72 71 70 69 67 66 64 63 61 59 58 57 55 52 47 43 38 33 39 49 62 66 62 58 43 41 40 23 14 17 12 9 26 8 33 32 35 39 42 45 50 37 45 30
75 75 75 74 72 71 70 68 65 63 63 61 58 58 56 53 51 44 40 43 42 40 43 50 41 52 47 20 30 48 11 20 17 9 14 6 5 12 19 39 43 50 46 40 32 31 32
76 76 75 73 72 71 69 66 64 62 61 60 59 57 54 50 41 37 39 35 44 30 42 43 37 46 28 27 37 35 11 16 26 10 17 16 33 49 55 54 23 50 29 42 36 32 40
75 74 73 72 69 66 65 63 62 60 60 59 59 56 50 43 39 36 30 40 25 29 38 31 28 32 17 14 24 20 23 26 20 19 19 17 21 15 13 37 29 46 55 45 39 29 33
74 72 70 67 64 62 61 61 59 58 59 58 58 53 46 40 40 42 45 39 23 32 40 29 21 20 18 27 27 18 15 28 32 27 36 28 33 27 36 51 44 59 47 40 34 30 39
72 69 66 60 57 58 59 58 57 57 56 58 54 50 43 36 36 34 37 20 31 37 33 26 25 22 25 26 27 23 19 20 24 26 39 51 58 52 33 52 40 35 41 45 46 41 45
68 65 60 52 51 52 54 55 54 54 55 54 51 46 39 51 38 34 23 26 36 33 29 31 28 23 23 24 31 30 30 30 35 29 27 37 46 41 24 26 42 41 30 30 39 41 44
64 61 55 45 46 47 49 48 52 53 53 50 38 28 31 36 54 33 29 36 31 27 30 37 29 27 29 27 30 31 37 41 43 33 30 29 44 42 34 33 31 36 28 38 37 39 43
62 58 52 43 43 45 46 48 50 52 53 43 32 29 29 21 6 27 34 38 33 27 35 34 28 31 31 32 33 30 32 40 46 32 30 39 47 51 50 35 33 29 23 32 37 39 49
60 56 53 50 45 45 47 49 51 53 53 37 28 24 27 12 17 30 43 43 41 36 37 36 41 35 34 38 29 37 41 49 28 39 30 39 42 45 37 31 42 38 35 35 31 31 44
57 57 56 55 51 49 49 48 50 50 47 30 27 22 20 15 27 34 44 40 41 51 54 50 37 32 40 39 45 45 45 52 31 27 27 33 38 58 62 54 50 43 44 27 36 37 42
56 56 58 57 55 52 51 49 49 47 41 30 23 21 17 29 34 42 43 45 44 50 46 36 41 47 38 33 37 39 46 64 61 36 30 27 43 61 62 54 42 40 43 32 27 33 40
56 56 56 55 55 53 53 51 50 49 42 21 24 22 25 29 33 36 43 45 37 44 47 38 48 43 34 36 35 35 41 39 51 58 54 24 39 40 44 34 32 48 37 27 23 37 49
56 55 55 54 53 53 53 52 51 50 38 28 28 25 23 24 35 46 43 41 45 38 35 39 34 35 36 37 38 38 37 41 32 40 44 36 51 43 60 57 46 46 40 32 28 32 50
56 56 55 55 54 53 53 52 51 51 40 30 28 27 32 29 32 33 21 27 34 36 33 32 27 30 33 41 38 37 33 35 35 43 39 44 51 45 54 49 38 47 38 37 38 46 56
55 55 54 54 53 52 53 51 51 52 43 33 35 33 31 29 30 27 29 35 33 34 34 35 38 41 35 37 40 42 32 32 36 37 39 39 35 32 39 38 38 53 49 48 47 39 38
51 52 52 52 51 50 50 51 51 51 48 39 34 32 32 28 29 24 30 39 41 40 39 41 42 43 42 42 33 32 36 25 35 37 38 36 32 35 39 37 48 41 41 44 38 38 37
47 49 50 50 49 49 50 52 52 51 49 44 33 27 24 41 31 26 44 46 44 44 38 37 36 38 39 41 47 48 54 47 43 43 40 39 33 38 43 43 41 42 41 37 34 39 40
46 47 49 51 52 54 56 56 55 53 51 44 31 23 25 36 25 36 41 37 40 41 41 36 41 36 36 37 42 50 54 48 51 54 44 41 33 40 39 46 47 35 37 40 37 57 36
40 43 44 44 45 47 50 53 53 53 51 48 16 26 30 34 40 32 24 44 36 38 39 38 41 34 32 39 43 43 51 41 49 50 50 45 47 46 42 44 41 34 37 39 45 48 31
38 39 41 46 48 44 40 41 48 51 50 47 18 15 34 39 54 48 35 39 44 38 38 40 31 28 27 38 40 40 44 46 45 48 46 43 42 48 44 44 41 32 30 28 48 43 38
33 31 33 40 43 44 44 39 39 42 45 46 30 32 37 39 51 54 67 62 51 45 44 38 34 24 21 27 34 31 37 34 37 48 42 45 34 38 39 45 28 31 33 36 34 42 40
Wind_Direction
346 343 338 335 333 330 327 321 316 313 309 305 301 298 296 293 291 290 289 290 289 284 274 268 271 276 290 285 221 286 295 308 356 239 253 283 309 328 315 303 307 5 38 9 8 90 75
342 339 339 337 334 333 328 323 316 312 310 305 300 297 294 291 289 288 287 286 286 282 277 274 273 280 294 268 290 281 296 310 307 248 239 295 320 332 318 308 310 313 336 7 3 66 75
342 338 336 332 334 332 329 325 317 311 307 304 301 296 293 289 287 284 283 282 281 280 279 278 283 293 283 202 315 275 266 279 292 230 251 289 305 312 311 301 325 304 309 334 336 353 344
344 340 336 332 327 328 331 328 318 311 307 302 300 295 292 289 286 283 281 279 275 275 277 281 291 307 249 288 280 246 264 259 251 246 274 299 311 302 321 311 313 312 318 305 330 1 9
340 338 337 333 329 326 326 329 319 311 306 302 298 294 291 289 286 283 281 276 276 278 282 285 299 298 256 280 275 247 279 266 291 258 279 284 306 306 306 308 307 322 312 306 296 330 5
338 335 332 331 328 325 323 326 319 310 305 302 297 294 290 287 286 283 281 279 289 284 283 285 280 273 262 289 284 285 279 272 275 267 281 306 296 298 296 307 305 309 306 309 298 322 331
331 331 327 326 327 323 320 319 317 311 305 301 296 292 289 286 284 284 286 282 277 276 270 269 276 258 261 274 276 265 270 277 277 266 258 293 300 256 283 304 307 297 301 300 307 335 325
323 323 325 326 326 326 321 315 311 309 306 300 296 291 286 284 280 278 275 269 276 279 271 240 236 242 244 270 262 255 263 275 269 247 267 282 179 160 282 284 285 290 293 286 302 285 313
327 329 330 329 327 326 322 314 308 303 303 299 295 290 284 281 277 272 265 259 267 292 278 265 272 254 257 291 280 246 238 257 267 234 253 246 103 287 294 278 284 272 293 302 315 317 308
330 329 328 328 326 321 317 310 306 300 299 297 292 288 282 278 272 268 262 273 270 282 277 271 274 261 267 277 276 263 220 250 269 218 267 269 251 237 240 245 322 272 312 301 308 307 294
328 327 326 322 319 313 311 306 303 299 297 293 291 284 278 271 266 257 265 275 279 284 275 285 280 277 271 277 296 276 243 254 264 264 262 255 274 284 289 174 310 274 283 305 305 315 311
328 324 320 315 313 310 308 306 301 298 295 291 288 279 274 265 256 248 261 264 271 274 270 284 288 279 265 264 286 272 246 264 266 272 266 265 275 288 274 278 292 278 302 307 315 318 300
323 320 316 311 308 308 307 304 301 298 295 292 284 272 265 261 252 260 263 255 262 263 283 281 283 287 271 263 264 275 251 240 257 263 265 259 259 265 290 279 300 309 302 301 298 291 293
319 317 313 306 305 305 306 304 302 301 298 295 281 264 265 241 248 260 257 254 258 271 273 289 288 288 285 275 266 270 264 256 257 268 278 264 265 265 285 298 292 299 302 314 302 294 294
317 316 312 305 305 305 305 304 305 305 303 297 289 299 274 258 225 257 247 249 265 271 291 294 292 284 285 287 279 264 262 261 260 253 265 271 267 267 278 292 310 308 302 298 307 306 296
318 315 311 306 306 307 307 307 308 308 307 295 298 295 279 275 186 258 250 255 262 277 296 303 292 290 282 288 274 262 260 266 260 256 251 271 271 265 268 291 308 318 314 308 303 299 292
319 315 312 311 309 309 310 310 312 313 312 296 297 299 289 274 267 261 253 256 260 276 300 299 295 289 289 286 279 270 267 258 256 262 249 262 273 268 281 288 287 310 305 302 309 303 292
315 316 316 316 313 312 313 312 313 314 312 314 289 293 291 277 266 266 258 263 268 270 279 287 288 285 282 292 276 275 262 255 263 260 259 258 276 263 262 274 283 300 304 303 290 292 293
312 314 318 318 317 316 315 314 313 313 306 257 284 300 304 282 268 263 263 266 267 265 273 276 273 280 282 295 292 284 265 248 250 263 258 257 268 261 263 275 291 298 305 294 295 296 294
311 313 315 317 317 317 318 317 316 314 303 5 311 319 303 284 280 279 269 266 263 274 269 277 268 282 278 282 295 295 279 273 266 253 258 251 267 267 266 275 293 297 309 312 290 291 287
310 311 313 314 315 317 319 319 320 320 310 302 290 313 326 321 288 273 268 264 269 274 275 282 279 285 279 282 288 289 294 278 276 277 263 254 260 264 260 267 280 284 298 304 302 299 283
310 311 312 314 316 317 319 320 321 323 314 329 304 310 296 316 313 303 285 270 269 276 277 281 288 292 287 283 288 287 299 290 278 276 277 266 261 262 267 276 280 276 291 305 300 294 278
310 310 310 311 313 313 316 318 322 328 329 318 301 301 305 314 319 315 283 267 272 275 273 280 279 281 291 291 284 291 291 291 286 280 278 275 263 265 269 280 285 275 278 288 294 299 302
305 304 305 306 306 308 310 315 319 327 338 327 318 317 300 313 312 328 289 269 267 272 278 277 282 282 291 290 303 300 292 292 295 294 283 279 275 270 274 285 282 288 290 290 295 296 297
302 301 301 301 301 302 306 312 315 318 322 328 327 338 332 277 300 287 239 254 266 270 287 288 290 298 297 293 281 277 274 268 280 282 285 280 279 276 275 282 295 290 288 288 286 287 290
302 301 302 304 305 309 313 315 315 313 316 337 336 350 337 294 301 284 266 274 275 280 276 284 292 297 299 289 277 266 262 264 266 264 279 285 285 277 283 282 284 295 293 294 296 275 293
298 299 300 298 297 297 302 306 307 309 309 313 338 333 323 304 282 288 301 252 281 289 285 288 285 292 302 275 268 271 261 271 269 268 267 271 275 273 278 283 291 298 296 293 277 289 301
299 299 300 302 302 295 288 288 296 299 302 316 250 26 308 294 244 271 287 281 274 282 280 295 290 304 305 274 270 272 270 268 276 276 275 277 277 274 276 281 280 293 300 293 288 297 300
294 292 293 296 296 295 293 286 282 282 287 322 352 323 303 300 253 273 246 225 207 198 276 272 288 304 310 296 281 286 277 286 284 278 275 276 290 289 285 282 294 292 289 295 300 294 300